Regional Weather Roundup
Issued by NWS

Home | Current Version | Previous Version | Text Only | Print | Product List | Glossary Off
Versions: 1 2 3 4 5 6 7 8 9 10 11 12 13 14 15 16 17 18 19 20 21 22 23 24 25 26 27 28 29 30 31 32 33 34 35 36 37 38 39 40 41 42 43 44 45 46 47 48 49 50

000
ASUS43 KMKX 180911
RWRWI

WISCONSIN REGIONAL WEATHER ROUNDUP
NATIONAL WEATHER SERVICE MILWAUKEE/SULLIVAN WI
400 AM CDT FRI APR 18 2014

NOTE: "FAIR" INDICATES FEW OR NO CLOUDS BELOW 12,000 FEET WITH NO
SIGNIFICANT WEATHER AND/OR OBSTRUCTIONS TO VISIBILITY.

WIZ001-002-006>008-014>016-023>028-181000-
NORTHWEST WISCONSIN

CITY           SKY/WX    TMP DP  RH WIND       PRES   REMARKS
SUPERIOR ARPT  MOCLDY    21  20  96 CALM      30.34S
ASHLAND        PTCLDY    23  22  96 W5        30.34R WCI  17
HAYWARD        CLOUDY    17  12  80 CALM      30.32R HAZE
SIREN          PTCLDY    19  17  93 CALM      30.33S
RICE LAKE      CLEAR     21  19  94 CALM      30.34S FOG
LADYSMITH      FOG       20  19  94 CALM      30.33R VSB 1/2
EAU CLAIRE     CLEAR     24  22  91 CALM      30.33R
MENOMONIE      SUNNY     26  25  95 CALM      30.34R
NEW RICHMOND   CLEAR     26  26 100 CALM      30.33S FOG
OSCEOLA        CLEAR     19  19  98 CALM      30.36S FOG
$$

WIZ003>005-009-010-017-018-181000-
NORTH CENTRAL WISCONSIN

CITY           SKY/WX    TMP DP  RH WIND       PRES   REMARKS
WOODRUFF       HAZE      22  17  81 CALM      30.27S VSB 1/4
RHINELANDER    CLEAR     27  21  78 CALM      30.28S
EAGLE RIVER    CLEAR     23  23 100 CALM      30.26F
LAND O LAKES   CLEAR     26  24  89 CALM      30.27S
PHILLIPS       PTCLDY    19  18  96 CALM      30.28S FOG
TOMAHAWK       CLEAR     24  22  94 CALM      30.29R
MEDFORD        CLEAR     26  23  91 CALM      30.29S
MERRILL        CLEAR     26  24  93 CALM      30.29S
$$

WIZ029-030-035-036-043>047-181000-
CENTRAL WISCONSIN

CITY           SKY/WX    TMP DP  RH WIND       PRES   REMARKS
WAUSAU         CLEAR     30  23  75 CALM      30.28S
MOSINEE        CLEAR     30  27  86 NW3       30.30S
MARSHFIELD     CLEAR     30  26  85 NW3       30.29F
STEVENS POINT  MOCLDY    31  24  74 CALM      30.31R
WAUPACA        CLOUDY    36  27  69 NW6       30.31R WCI  31
WAUTOMA        CLOUDY    36  28  73 NW6       30.31S WCI  31
WISC RAPIDS    CLOUDY    33  25  72 N5        30.32S WCI  29
CAMP DOUGLAS   CLOUDY    33  30  91 NW5       30.31S WCI  28
$$

WIZ011>013-019>022-031-037>040-048>050-181000-
NORTHEAST WISCONSIN

CITY           SKY/WX    TMP DP  RH WIND       PRES   REMARKS
ANTIGO         MOCLDY    29  24  81 NW6       30.27S WCI  23
STURGEON BAY   CLOUDY    34  27  75 NW8       30.29S WCI  27
GREEN BAY      CLOUDY    36  29  75 N6        30.29F WCI  31
MANITOWOC      CLOUDY    38  33  82 N9        30.29R WCI  31
APPLETON       CLOUDY    34  28  80 NW8       30.29S WCI  27
CLINTONVILLE   CLOUDY    34  28  80 NW5       30.30S WCI  30
OSHKOSH        PTCLDY    32  28  85 NW3       30.29S
$$

WIZ032>034-041-042-053>061-181000-
SOUTHWEST WISCONSIN

CITY           SKY/WX    TMP DP  RH WIND       PRES   REMARKS
LA CROSSE      CLEAR     31  25  78 NE3       30.33R
SPARTA         CLEAR     25  23  92 CALM      30.34R
VIROQUA        FAIR      30  28  90 N5        30.31R WCI  25
BOSCOBEL       CLEAR     27  25  92 CALM      30.32S FOG
PRAIRIE DU CHI CLEAR     29  27  91 CALM      30.32S
PLATTEVILLE    FAIR      31  28  91 N5        30.31R WCI  26
$$

WIZ056-057-062-063-064-067-068-181000-
SOUTH CENTRAL WISCONSIN

CITY           SKY/WX    TMP DP  RH WIND       PRES   REMARKS
BARABOO/DELLS  PTCLDY    28  27  95 CALM      30.30R
LONE ROCK      CLEAR     30  27  88 CALM      30.32R
WATERTOWN      CLEAR     33  31  92 CALM      30.29S
MADISON        CLEAR     30  28  92 CALM      30.30S FOG
MIDDLETON      FAIR      30  29  96 CALM      30.30S
MONROE         CLEAR    N/A N/A N/A N7        30.28S
JANESVILLE     CLEAR     34  32  93 N3        30.29R
$$

WIZ051-052-058>065-066-070>072-181000-
SOUTHEAST WISCONSIN

CITY           SKY/WX    TMP DP  RH WIND       PRES   REMARKS
MILWAUKEE      MOCLDY    39  32  76 N5        30.29S
WAUKESHA       CLOUDY    34  32  93 NW5       30.30R WCI  30
MILWAUKEE/TIMM CLOUDY    36  32  87 N5        30.29S WCI  32
RACINE         CLEAR     38  34  85 N7        30.29S WCI  33
BURLINGTON     CLEAR     35  32  89 N7        30.27S WCI  29
KENOSHA        CLEAR     38  34  85 N6        30.27S WCI  33
FOND DU LAC    CLOUDY    31  28  89 CALM      30.29S
SHEBOYGAN      CLOUDY    36  31  82 NW7       30.29R WCI  30
WEST BEND      MOCLDY    32  30  93 CALM      30.28S
JUNEAU         PTCLDY    32  29  88 CALM      30.30S
$$

LSZ147-162-181000-
LAKE SUPERIOR

STATION/POSITION TIME  TEMP    WIND        PRES    WAVE
                       AIR SEA DIR/SP/G            HT/PER
                 (UTC) (F)     (DEG/KT/KT) (MB)    (FT/S)
DEVILS ISLAND    0900   32     330/ 10/ 11 1028.0S
PORT WING        0800   26     130/  1/  2 1027.1
SAXON HARBOR     0800             CALM     1026.8S
$$

LMZ867-665-643>646-181000-
LAKE MICHIGAN

STATION/POSITION TIME  TEMP    WIND        PRES    WAVE
                       AIR SEA DIR/SP/G            HT/PER
                 (UTC) (F)     (DEG/KT/KT) (MB)    (FT/S)
NORTHPORT PIER   0800   35     300/  7/ 10 1025.4R
SISTER BAY       0823   33     340/  7/  8   N/A
KEWAUNEE LAKESHO 0800   38     330/  4/  5 1025.8R
SHEBOYGAN LAKESH 0900   39     320/  9/ 12 1026.2R
PORT WASHINGTON  0800   38     290/  3/  5 1026.1R
MILWAUKEE LAKESH 0800   41     330/  6/  8   N/A
KENOSHA   LAKESH 0900   42     360/ 12/ 13   N/A
$$

TC  - TEMPERATURE IN CELSIUS
VSB - VISIBILITY IN STATUTE MILES
WCI - WIND CHILL INDEX
HX  - HEAT INDEX




USA.gov is the U.S. government's official web portal to all federal, state and local government web resources and services.